Regional Weather Roundup
Issued by NWS Memphis, TN

Home | Current Version | Previous Version | Text Only | Print | Product List | Glossary On
Versions: 1 2 3 4 5 6 7 8 9 10 11 12 13 14 15 16 17 18 19 20 21 22 23 24 25 26 27 28 29 30 31 32 33 34 35 36 37 38 39 40 41 42 43 44 45 46 47 48 49 50
000
ASUS44 KMEG 240000
RWRMEG
MEMPHIS CWA HOURLY WEATHER ROUNDUP
NATIONAL WEATHER SERVICE MEMPHIS TN
700 PM CDT MON APR 23 2018

...WEST TENNESSEE...

CITY           SKY/WX    TMP DP  RH WIND       PRES   REMARKS
MEMPHIS INTL   LGT RAIN  55  55 100 NW7       29.89S
6HR MIN TEMP:  55; 6HR MAX TEMP:  58; 6HR PCP:  0.18;

NWS MEMPHIS      N/A     55 N/A N/A MISG        N/A
JACKSON        LGT RAIN  59  57  93 CALM      29.89S
6HR MIN TEMP:  58; 6HR MAX TEMP:  64; 6HR PCP:  0.08;

DYERSBURG      CLOUDY    57  55  93 NW3       29.90R
6HR MIN TEMP:  57; 6HR MAX TEMP:  59;



...EASTERN ARKANSAS...

CITY           SKY/WX    TMP DP  RH WIND       PRES   REMARKS
JONESBORO      CLOUDY    56  55  97 CALM      29.90R
6HR MIN TEMP:  55; 6HR MAX TEMP:  57; 6HR PCP:  0.01;

WEST MEMPHIS   LGT RAIN  56  54  93 VRB3      29.89S FOG
6HR MIN TEMP:  56; 6HR MAX TEMP:  58; 6HR PCP:  0.04;

BATESVILLE     CLOUDY    56  55  97 CALM      29.92S
6HR MIN TEMP:  55; 6HR MAX TEMP:  57; 6HR PCP:  0.01;

NEWPORT        CLOUDY    55  54  96 NW9       29.91S FOG
6HR MIN TEMP:  54; 6HR MAX TEMP:  57; 6HR PCP: TRACE;

WALNUT RIDGE   MOCLDY    56  54  93 NE7       29.90S
6HR MIN TEMP:  55; 6HR MAX TEMP:  57; 6HR PCP: TRACE;

BLYTHEVILLE    CLOUDY    58  54  86 CALM      29.89S
6HR MIN TEMP:  57; 6HR MAX TEMP:  58; 6HR PCP:  0.03;

SEARCY         CLOUDY    60  55  83 N6        29.92S
6HR MIN TEMP:  56; 6HR MAX TEMP:  60;

STUTTGART      CLOUDY    57  54  89 NW6       29.92S
6HR MIN TEMP:  57; 6HR MAX TEMP:  61; 6HR PCP:  0.04;

PINE BLUFF     CLOUDY    60  57  89 CALM      29.91F
6HR MIN TEMP:  60; 6HR MAX TEMP:  64; 6HR PCP: TRACE;

MONTICELLO     CLOUDY    64  57  78 CALM      29.92R
6HR MIN TEMP:  61; 6HR MAX TEMP:  65;



...NORTH MISSISSIPPI...

CITY           SKY/WX    TMP DP  RH WIND       PRES   REMARKS
TUPELO         CLOUDY    61  52  72 SW9       29.89R
6HR MIN TEMP:  61; 6HR MAX TEMP:  69; 6HR PCP: TRACE;

OXFORD         LGT RAIN  57  55  94 SW3       29.91S VSB 3/4
BATESVILLE       N/A    N/A N/A N/A MISG        N/A
OLIVE BRANCH   CLOUDY    54  54 100 W8        29.89S FOG
CLARKSDALE     CLOUDY    57  57 100 NW7       29.91S FOG
GREENWOOD      CLOUDY    58  56  93 SW7       29.92S FOG
6HR MIN TEMP:  58; 6HR MAX TEMP:  64; 6HR PCP:  0.01;

COLUMBUS       CLOUDY    63  54  73 W12       29.89R
6HR MIN TEMP:  63; 6HR MAX TEMP:  71;

STARKVILLE     CLOUDY    61  54  77 W5        29.92S
GOLDEN TRIANGL FAIR      62  53  72 W9        29.90S
6HR MIN TEMP:  62; 6HR MAX TEMP:  67;



...SOUTHEAST MISSOURI...

CITY           SKY/WX    TMP DP  RH WIND       PRES   REMARKS
KENNETT        CLOUDY    61  55  82 CALM      29.89R
MALDEN         MOCLDY    63  55  77 CALM      29.91R
WEST PLAINS    CLOUDY    58  52  80 N9        29.95S
6HR MIN TEMP:  54; 6HR MAX TEMP:  60;

POPLAR BLUFF   FAIR      62  56  80 NE3       29.90R
6HR MIN TEMP:  56; 6HR MAX TEMP:  64; 6HR PCP: TRACE;

CAPE GIRARDEAU FAIR      60  55  83 N5        29.90S
6HR MIN TEMP:  59; 6HR MAX TEMP:  67; 6HR PCP:  0.11;



...NORTHWEST ALABAMA...

CITY           SKY/WX    TMP DP  RH WIND       PRES   REMARKS
MUSCLE SHOALS  CLOUDY    62  57  83 N3        29.88S
6HR MIN TEMP:  62; 6HR MAX TEMP:  71; 6HR PCP:  0.04;



...MIDDLE TENNESSEE...

CITY           SKY/WX    TMP DP  RH WIND       PRES   REMARKS
NASHVILLE      MOCLDY    61  57  87 E6        29.90S
6HR MIN TEMP:  61; 6HR MAX TEMP:  70; 6HR PCP:  0.01;

CLARKSVILLE    LGT RAIN  60  54  80 SE9       29.90R
6HR MIN TEMP:  60; 6HR MAX TEMP:  68; 6HR PCP:  0.16;



...WESTERN KENTUCKY...

CITY           SKY/WX    TMP DP  RH WIND       PRES   REMARKS
PADUCAH        LGT RAIN  59  57  93 CALM      29.89R
6HR MIN TEMP:  59; 6HR MAX TEMP:  66; 6HR PCP:  0.95;



...CENTRAL ARKANSAS...

CITY           SKY/WX    TMP DP  RH WIND       PRES   REMARKS
LITTLE ROCK    CLOUDY    61  58  90 NE7       29.92R
6HR MIN TEMP:  61; 6HR MAX TEMP:  63; 6HR PCP: TRACE;



SKY/WX REPORTED AS FAIR MEANS FEW OR NO CLOUDS BELOW
12 THOUSAND FEET.




USA.gov is the U.S. government's official web portal to all federal, state and local government web resources and services.